SAS88H BGGH-BGSF

Flight info

Callsign SAS88H
Flight time N/A
Altitude 25000
Route VETEM DCT SUBAX DCT OSWIL DCT TESVO
Aircraft F28/M-SDFIRWY/H

Departure

Time 2026-04-27 18:13
Airport Nuuk International Airport (BGGH)

Arrival

Time N/A
Airport Kangerlussuaq International Airport (BGSF)
Time Latitude Longitude Altitude Speed Heading
2026-04-27 17:44 64.18519 -51.67830 279 ft 0 kts 108°
2026-04-27 18:09 64.18519 -51.67829 279 ft 1 kts 108°
2026-04-27 18:10 64.18515 -51.67826 279 ft 1 kts 194°
2026-04-27 18:10 64.18514 -51.67858 279 ft 7 kts 280°
2026-04-27 18:10 64.18535 -51.67934 279 ft 1 kts 335°
2026-04-27 18:10 64.18552 -51.67945 279 ft 1 kts
2026-04-27 18:11 64.18601 -51.67934 279 ft 6 kts 335°
2026-04-27 18:11 64.18613 -51.67954 279 ft 0 kts 307°
2026-04-27 18:11 64.18628 -51.68002 279 ft 4 kts 295°
2026-04-27 18:11 64.18638 -51.68093 279 ft 10 kts 285°
2026-04-27 18:12 64.18666 -51.68211 279 ft 7 kts 328°
2026-04-27 18:12 64.18699 -51.68228 280 ft 7 kts
2026-04-27 18:12 64.18724 -51.68209 279 ft 19 kts 19°
2026-04-27 18:12 64.19107 -51.67926 279 ft 97 kts 19°
2026-04-27 18:13 64.19958 -51.67307 616 ft 149 kts 17°
2026-04-27 18:13 64.21051 -51.66552 1575 ft 164 kts 14°
2026-04-27 18:13 64.22028 -51.65536 2707 ft 155 kts 36°
2026-04-27 18:13 64.22784 -51.63593 3256 ft 176 kts 28°
2026-04-27 18:14 64.23845 -51.62444 4274 ft 155 kts 21°
2026-04-27 18:14 64.24800 -51.61395 5199 ft 156 kts 22°
2026-04-27 18:14 64.25901 -51.60200 5716 ft 193 kts 20°
2026-04-27 18:14 64.27160 -51.59138 6987 ft 174 kts 12°
2026-04-27 18:15 64.28192 -51.58356 8840 ft 149 kts 15°
2026-04-27 18:15 64.29209 -51.57177 9536 ft 185 kts 25°
2026-04-27 18:15 64.30334 -51.55432 10228 ft 195 kts 25°
2026-04-27 18:15 64.31421 -51.54136 11748 ft 155 kts 11°
2026-04-27 18:16 64.32492 -51.53627 12508 ft 176 kts
2026-04-27 18:16 64.33780 -51.53169 12806 ft 194 kts
2026-04-27 18:16 64.35135 -51.52723 13159 ft 203 kts
2026-04-27 18:16 64.36459 -51.52382 14261 ft 170 kts 358°
2026-04-27 18:17 64.37704 -51.52286 14743 ft 186 kts 356°
2026-04-27 18:17 64.38995 -51.52378 15326 ft 184 kts 353°
2026-04-27 18:17 64.40297 -51.52527 15581 ft 194 kts 352°
2026-04-27 18:17 64.41645 -51.52811 15850 ft 199 kts 352°
2026-04-27 18:18 64.43038 -51.53134 16385 ft 192 kts 350°
2026-04-27 18:18 64.44251 -51.53553 17706 ft 165 kts 349°
2026-04-27 18:18 64.45383 -51.53959 18394 ft 173 kts 345°
2026-04-27 18:18 64.46570 -51.54942 18552 ft 189 kts 332°
2026-04-27 18:19 64.47787 -51.56292 18688 ft 199 kts 341°
2026-04-27 18:19 64.49144 -51.57045 18988 ft 203 kts 348°
2026-04-27 18:19 64.50578 -51.57631 19069 ft 220 kts 349°
2026-04-27 18:19 64.52043 -51.58268 19874 ft 196 kts 343°
2026-04-27 18:20 64.53326 -51.59210 20234 ft 209 kts 342°
2026-04-27 18:20 64.54804 -51.60472 19916 ft 240 kts 335°
2026-04-27 18:20 64.56201 -51.62542 20515 ft 230 kts 318°
2026-04-27 18:20 64.57552 -51.64705 20296 ft 255 kts 337°
2026-04-27 18:21 64.59264 -51.66300 20083 ft 275 kts 338°
2026-04-27 18:21 64.61072 -51.68360 20020 ft 283 kts 330°
2026-04-27 18:21 64.62642 -51.70691 20544 ft 264 kts 327°
2026-04-27 18:21 64.64111 -51.73308 19922 ft 271 kts 318°
2026-04-27 18:22 64.65398 -51.76354 19618 ft 253 kts 317°
2026-04-27 18:22 64.66416 -51.78900 19780 ft 200 kts 316°
2026-04-27 18:22 64.67445 -51.81317 18442 ft 215 kts 319°
2026-04-27 18:22 64.68428 -51.83731 17759 ft 197 kts 314°
2026-04-27 18:23 64.69167 -51.86192 17329 ft 177 kts 306°
2026-04-27 18:23 64.69648 -51.88795 16734 ft 173 kts 295°
2026-04-27 18:23 64.69976 -51.91769 15694 ft 223 kts 294°
2026-04-27 18:23 64.70566 -51.95468 14375 ft 243 kts 302°
2026-04-27 18:24 64.71451 -51.98788 12877 ft 237 kts 311°
2026-04-27 18:24 64.72469 -52.01810 11376 ft 234 kts 314°
2026-04-27 18:24 64.73498 -52.04838 9587 ft 247 kts 313°
2026-04-27 18:24 64.74514 -52.07673 9283 ft 208 kts 314°
2026-04-27 18:25 64.75373 -52.10222 9250 ft 187 kts 310°
2026-04-27 18:25 64.76186 -52.12524 9057 ft 193 kts 322°
2026-04-27 18:25 64.77316 -52.14570 8444 ft 219 kts 327°
2026-04-27 18:25 64.78667 -52.16614 7948 ft 254 kts 331°
2026-04-27 18:26 64.80290 -52.18526 7124 ft 269 kts 336°
2026-04-27 18:26 64.82071 -52.20272 6353 ft 269 kts 338°
2026-04-27 18:26 64.83569 -52.21753 6210 ft 214 kts 337°
2026-04-27 18:26 64.84882 -52.23050 5627 ft 185 kts 338°
2026-04-27 18:27 64.85976 -52.24025 5096 ft 162 kts 343°
2026-04-27 18:27 64.87162 -52.24736 4321 ft 201 kts 347°
2026-04-27 18:27 64.88601 -52.25622 4310 ft 192 kts 342°
2026-04-27 18:27 64.89896 -52.26632 3723 ft 204 kts 340°
2026-04-27 18:28 64.91176 -52.27776 3427 ft 185 kts 338°
2026-04-27 18:28 64.92265 -52.28818 3255 ft 163 kts 338°
2026-04-27 18:28 64.93447 -52.29937 2529 ft 192 kts 338°
2026-04-27 18:28 64.94777 -52.31108 2434 ft 208 kts 340°
2026-04-27 18:29 64.96167 -52.32175 2494 ft 214 kts 342°
2026-04-27 18:29 64.97522 -52.32931 3134 ft 200 kts 350°
2026-04-27 18:29 64.98903 -52.33389 3465 ft 203 kts 350°
2026-04-27 18:29 65.00375 -52.33934 3814 ft 218 kts 349°
2026-04-27 18:30 65.01832 -52.34479 4102 ft 210 kts 351°
2026-04-27 18:30 65.03202 -52.34916 4546 ft 198 kts 352°
2026-04-27 18:30 65.04533 -52.35341 4449 ft 190 kts 351°
2026-04-27 18:30 65.05838 -52.35841 4179 ft 192 kts 349°
2026-04-27 18:31 65.07129 -52.36370 4045 ft 189 kts 349°
2026-04-27 18:31 65.08450 -52.36832 3784 ft 191 kts 350°
2026-04-27 18:31 65.09226 -52.37123 3795 ft 151 kts 349°
2026-04-27 18:31 65.10425 -52.37603 3504 ft 133 kts 346°
2026-04-27 18:32 65.11020 -52.37926 3594 ft 128 kts 345°
2026-04-27 18:32 65.11967 -52.38399 3475 ft 152 kts 347°
2026-04-27 18:32 65.13073 -52.38984 3376 ft 173 kts 344°
2026-04-27 18:32 65.14322 -52.39745 3184 ft 191 kts 345°
2026-04-27 18:33 65.15566 -52.40526 3447 ft 188 kts 345°
2026-04-27 18:33 65.16848 -52.41487 3474 ft 208 kts 338°
2026-04-27 18:33 65.18096 -52.43158 4293 ft 196 kts 321°
2026-04-27 18:33 65.19139 -52.45491 4517 ft 221 kts 316°
2026-04-27 18:34 65.20286 -52.48247 3982 ft 244 kts 315°
2026-04-27 18:34 65.21708 -52.50757 3460 ft 258 kts 332°
2026-04-27 18:34 65.23313 -52.52616 3368 ft 254 kts 334°
2026-04-27 18:34 65.24814 -52.54505 3689 ft 236 kts 332°
2026-04-27 18:35 65.26253 -52.56357 3421 ft 242 kts 329°
2026-04-27 18:35 65.27761 -52.58275 3226 ft 247 kts 333°
2026-04-27 18:35 65.29298 -52.60585 3070 ft 264 kts 324°
2026-04-27 18:35 65.30672 -52.63170 3322 ft 233 kts 321°
2026-04-27 18:36 65.31847 -52.65705 3540 ft 208 kts 318°
2026-04-27 18:36 65.32783 -52.67930 3223 ft 192 kts 315°
2026-04-27 18:36 65.33715 -52.70300 2794 ft 178 kts 316°
2026-04-27 18:36 65.34531 -52.72168 2533 ft 150 kts 317°
2026-04-27 18:37 65.35237 -52.73907 2074 ft 142 kts 315°
2026-04-27 18:37 65.35945 -52.75720 1744 ft 147 kts 315°
2026-04-27 18:37 65.36576 -52.77375 1677 ft 143 kts 314°
2026-04-27 18:37 65.37285 -52.79346 1520 ft 156 kts 314°
2026-04-27 18:38 65.38016 -52.81122 1399 ft 147 kts 318°
2026-04-27 18:38 65.38729 -52.82694 1180 ft 124 kts 318°
2026-04-27 18:38 65.39262 -52.84289 829 ft 135 kts 293°
2026-04-27 18:38 65.39402 -52.86429 809 ft 108 kts 283°
2026-04-27 18:39 65.39569 -52.88109 655 ft 102 kts 297°
2026-04-27 18:39 65.39900 -52.89590 496 ft 100 kts 307°
2026-04-27 18:39 65.40290 -52.90889 332 ft 92 kts 311°
2026-04-27 18:39 65.40670 -52.92125 219 ft 98 kts 310°
2026-04-27 18:40 65.41075 -52.93411 120 ft 91 kts 322°
2026-04-27 18:40 65.41529 -52.94859 368 ft 111 kts 306°
2026-04-27 18:40 65.41628 -52.96573 555 ft 113 kts 256°
2026-04-27 18:40 65.40989 -52.97700 715 ft 127 kts 195°
2026-04-27 18:41 65.40028 -52.97291 989 ft 141 kts 162°
2026-04-27 18:41 65.39200 -52.96137 1106 ft 138 kts 142°
2026-04-27 18:41 65.38572 -52.94407 1075 ft 140 kts 111°
2026-04-27 18:41 65.38485 -52.92210 1253 ft 131 kts 60°
2026-04-27 18:42 65.39153 -52.90772 1228 ft 134 kts 20°
2026-04-27 18:42 65.39713 -52.90633 1102 ft 114 kts 351°
2026-04-27 18:42 65.40469 -52.91708 417 ft 93 kts 314°
2026-04-27 18:42 65.40884 -52.92841 217 ft 101 kts 309°
2026-04-27 18:43 65.41275 -52.93996 91 ft 67 kts 312°
2026-04-27 18:43 65.41431 -52.94477 94 ft 17 kts 307°
2026-04-27 18:43 65.41444 -52.94525 95 ft 1 kts 260°
2026-04-27 18:43 65.41434 -52.94526 93 ft 4 kts 148°
2026-04-27 18:44 65.41383 -52.94357 95 ft 17 kts 129°
2026-04-27 18:44 65.41308 -52.94125 91 ft 18 kts 124°
2026-04-27 18:44 65.41182 -52.93697 97 ft 28 kts 127°
2026-04-27 18:44 65.41114 -52.93484 100 ft 11 kts 127°
2026-04-27 18:45 65.41075 -52.93354 103 ft 5 kts 125°
2026-04-27 18:45 65.41054 -52.93276 99 ft 5 kts 125°
2026-04-27 18:45 65.41049 -52.93269 98 ft 1 kts 177°
2026-04-27 18:45 65.41048 -52.93282 100 ft 1 kts 284°
2026-04-27 18:46 65.41051 -52.93295 100 ft 0 kts 308°
2026-04-27 18:46 65.41141 -52.93565 97 ft 64 kts 309°
2026-04-27 18:46 65.41577 -52.95001 312 ft 131 kts 309°
2026-04-27 18:46 65.41809 -52.97193 1113 ft 146 kts 260°
2026-04-27 18:47 65.41040 -52.98543 1182 ft 155 kts 193°
2026-04-27 18:47 65.40034 -52.97757 1005 ft 159 kts 139°
2026-04-27 18:47 65.39441 -52.95635 891 ft 143 kts 109°
2026-04-27 18:47 65.39444 -52.93591 976 ft 122 kts 59°
2026-04-27 18:48 65.39981 -52.92028 895 ft 116 kts 11°
2026-04-27 18:48 65.40724 -52.92587 393 ft 108 kts 320°
2026-04-27 18:48 65.40994 -52.94430 574 ft 141 kts 258°
2026-04-27 18:48 65.40606 -52.96702 995 ft 153 kts 255°
2026-04-27 18:49 65.39974 -52.98342 1748 ft 131 kts 192°
2026-04-27 18:49 65.39068 -52.97132 1799 ft 168 kts 125°
2026-04-27 18:49 65.38578 -52.94788 1734 ft 151 kts 107°
2026-04-27 18:49 65.38382 -52.92309 1522 ft 148 kts 74°
2026-04-27 18:50 65.39067 -52.90532 1308 ft 153 kts 12°
2026-04-27 18:50 65.39905 -52.90785 809 ft 116 kts 335°
2026-04-27 18:50 65.40450 -52.91765 380 ft 95 kts 317°
2026-04-27 18:50 65.40883 -52.92890 163 ft 96 kts 309°
2026-04-27 18:51 65.41286 -52.94083 99 ft 73 kts 310°
2026-04-27 18:51 65.41622 -52.95256 329 ft 102 kts 308°
2026-04-27 18:51 65.41520 -52.97164 633 ft 161 kts 231°
2026-04-27 18:51 65.40617 -52.98305 853 ft 132 kts 209°
2026-04-27 18:52 65.39743 -52.98288 760 ft 133 kts 157°
2026-04-27 18:52 65.39101 -52.96516 1136 ft 142 kts 111°
2026-04-27 18:52 65.38827 -52.94129 1075 ft 149 kts 81°
2026-04-27 18:53 65.40104 -52.91681 703 ft 93 kts 348°
2026-04-27 18:53 65.40699 -52.92423 312 ft 105 kts 319°
2026-04-27 18:53 65.41134 -52.93594 100 ft 76 kts 310°
2026-04-27 18:53 65.41339 -52.94206 91 ft 17 kts 316°
2026-04-27 18:54 65.41364 -52.94261 90 ft 0 kts 301°
2026-04-27 18:54 65.41362 -52.94273 90 ft 1 kts 209°
2026-04-27 18:54 65.41332 -52.94185 90 ft 18 kts 121°
2026-04-27 18:54 65.41202 -52.93768 95 ft 34 kts 124°
2026-04-27 18:55 65.41116 -52.93489 101 ft 9 kts 127°
2026-04-27 18:55 65.41110 -52.93402 100 ft 6 kts 57°
2026-04-27 18:55 65.41150 -52.93356 98 ft 6 kts 18°
2026-04-27 18:55 65.41168 -52.93335 99 ft 1 kts 50°
2026-04-27 18:56 65.41165 -52.93318 99 ft 1 kts 146°
2026-04-27 18:56 65.41160 -52.93320 98 ft 2 kts 198°
2026-04-27 18:56 65.41155 -52.93326 100 ft 0 kts 204°